Location: Summit Observatory
(39.5293°N, 75.7290°W)
Time: 14:21:59
(UTC-04:00)

XW-2F - Visible Passes

Search period start: 21 October 2019 00:00
Search period end: 31 October 2019 00:00
Orbit: 502 x 524 km, 97.5° (Epoch: 21 October)

Date Brightness Start Highest point End Pass type
(mag) Time Alt. Az. Time Alt. Az. Time Alt. Az.
21 Oct ? 06:46:28 10° NNE 06:50:00 41° E 06:53:30 10° S visible
21 Oct ? 18:59:26 10° SSW 19:02:42 28° W 19:05:58 10° NW visible
22 Oct ? 06:31:17 10° NE 06:34:26 26° E 06:37:33 10° SSE visible
22 Oct ? 18:43:33 10° S 18:47:08 45° W 18:50:43 10° NNW visible
23 Oct ? 06:16:20 10° NE 06:18:48 17° E 06:21:16 10° SE visible
24 Oct ? 06:02:12 10° ENE 06:03:10 11° E 06:04:07 10° ESE visible
25 Oct ? 19:33:29 10° WSW 19:34:48 12° W 19:36:09 10° WNW visible
26 Oct ? 19:16:34 10° SW 19:19:10 18° W 19:21:46 10° NW visible
27 Oct ? 06:47:18 10° NNE 06:50:51 42° E 06:54:23 10° S visible
27 Oct ? 19:00:20 10° SSW 19:03:33 27° W 19:06:46 10° NW visible
28 Oct ? 06:32:04 10° NE 06:35:16 26° E 06:38:26 10° SSE visible
28 Oct ? 18:44:25 10° S 18:47:58 43° W 18:51:32 10° NNW visible
29 Oct ? 06:17:07 10° NE 06:19:39 17° E 06:22:11 10° SE visible
29 Oct ? 18:28:43 10° S 18:32:25 72° W 18:36:07 10° NNW visible
30 Oct ? 06:02:49 10° ENE 06:04:00 11° E 06:05:09 10° ESE visible
